TimeCST,TemperatureF,Dew PointF,Humidity,Sea Level PressureIn,VisibilityMPH,Wind Direction,Wind SpeedMPH,Gust SpeedMPH,PrecipitationIn,Events,Conditions,WindDirDegrees,DateUTC
12:55 AM,66.6,63.7,90,30.09,10.0,SE,15.0,23.0,N/A,,Scattered Clouds,130,2013-01-11 06:55:00
1:52 AM,68.0,62.6,83,30.09,10.0,SSE,8.1,-,N/A,,Light Drizzle,160,2013-01-11 07:52:00
1:55 AM,67.6,63.0,85,30.09,10.0,SSE,8.1,-,0.00,,Light Drizzle,150,2013-01-11 07:55:00
2:02 AM,68.0,62.6,83,30.09,10.0,SSE,6.9,-,N/A,,Partly Cloudy,150,2013-01-11 08:02:00
2:55 AM,66.7,62.2,85,30.11,10.0,South,10.4,-,0.00,,Mostly Cloudy,190,2013-01-11 08:55:00
3:55 AM,64.9,63.0,93,30.12,10.0,WSW,3.5,-,N/A,,Clear,250,2013-01-11 09:55:00
4:55 AM,63.3,63.0,99,30.11,9.0,Calm,Calm,-,N/A,,Mostly Cloudy,0,2013-01-11 10:55:00
5:55 AM,62.2,62.1,99,30.12,10.0,ESE,4.6,-,N/A,,Scattered Clouds,110,2013-01-11 11:55:00
6:55 AM,65.5,63.0,92,30.15,10.0,SSE,8.1,-,N/A,,Mostly Cloudy,150,2013-01-11 12:55:00
7:55 AM,66.6,64.4,93,30.18,10.0,SSE,6.9,-,N/A,,Partly Cloudy,150,2013-01-11 13:55:00
8:55 AM,70.2,65.8,86,30.20,10.0,SSE,9.2,-,N/A,,Mostly Cloudy,160,2013-01-11 14:55:00
9:55 AM,70.7,66.7,87,30.19,10.0,SSE,10.4,-,N/A,,Mostly Cloudy,160,2013-01-11 15:55:00
10:42 AM,73.4,66.2,78,30.18,10.0,South,13.8,-,N/A,,Mostly Cloudy,180,2013-01-11 16:42:00
10:55 AM,73.4,66.7,80,30.19,10.0,South,13.8,-,N/A,,Mostly Cloudy,170,2013-01-11 16:55:00
11:55 AM,73.0,66.6,80,30.17,10.0,South,11.5,-,N/A,,Mostly Cloudy,170,2013-01-11 17:55:00
12:55 PM,73.0,66.6,80,30.14,10.0,South,12.7,-,N/A,,Overcast,170,2013-01-11 18:55:00
1:55 PM,73.8,66.2,77,30.13,10.0,South,13.8,-,N/A,,Mostly Cloudy,180,2013-01-11 19:55:00
2:55 PM,73.2,66.7,80,30.12,10.0,South,10.4,-,N/A,,Mostly Cloudy,170,2013-01-11 20:55:00
3:55 PM,71.8,66.6,84,30.12,10.0,SSE,9.2,-,N/A,,Overcast,150,2013-01-11 21:55:00
4:55 PM,70.5,66.9,88,30.13,10.0,SSE,6.9,-,N/A,,Overcast,160,2013-01-11 22:55:00
5:55 PM,70.0,66.9,90,30.14,10.0,SSE,6.9,-,N/A,,Overcast,160,2013-01-11 23:55:00
6:55 PM,69.3,66.9,92,30.16,10.0,SE,6.9,-,N/A,,Overcast,140,2013-01-12 00:55:00
7:55 PM,68.7,66.6,93,30.16,10.0,SSE,5.8,-,N/A,,Mostly Cloudy,150,2013-01-12 01:55:00
8:55 PM,68.2,67.1,96,30.16,2.5,SSE,6.9,-,0.00,,Light Drizzle,160,2013-01-12 02:55:00
9:04 PM,68.0,68.0,100,30.15,2.5,SSE,6.9,-,N/A,,Light Drizzle,150,2013-01-12 03:04:00
9:21 PM,68.0,68.0,100,30.15,2.0,SE,5.8,-,N/A,,Light Drizzle,140,2013-01-12 03:21:00
9:55 PM,67.5,67.1,99,30.15,1.5,SSE,6.9,-,0.00,,Overcast,150,2013-01-12 03:55:00
10:55 PM,66.9,66.6,99,30.17,0.8,SSE,4.6,-,N/A,,Overcast,150,2013-01-12 04:55:00
11:25 PM,66.2,66.2,100,30.13,1.5,SE,5.8,-,N/A,,Overcast,140,2013-01-12 05:25:00
11:55 PM,66.9,66.6,99,30.14,3.0,SSE,8.1,-,N/A,,Overcast,150,2013-01-12 05:55:00